< < Back
Terminal Aerodrome Forecast


Current Version              Previous Versions:   1  2  3  4  5  6  7  8  9  

Terminal Aerodrome Forecast

707
FTUS42 KTAE 222300
TAFABY
TAF
KABY 222320Z 2300/2324 01007KT P6SM SKC
     FM230300 00000KT P6SM SKC
     FM231500 04006KT P6SM SKC=

Latest METAR

696
SAUS70 KWBC 230500 RRB
MTRABY
METAR KABY 230453Z 00000KT 10SM CLR 10/08 A3010 RMK AO2 SLP191 T01000078
402390089 PWINO $


USA.gov is the U.S. government's official web portal to all federal, state and local government web resources and services.